Weather History for Farmingdale, NY

Change the Weather History Date:

Saturday, March 2, 2013

  Actual Average Record
Temperature  
Mean Temperature 34 °F -  
Max Temperature 39 °F 42 °F 60 °F (1997)
Min Temperature 30 °F 28 °F 17 °F (2009)
Degree Days  
Heating Degree Days 30    
Moisture  
Dew Point 25 °F    
Average Humidity 69    
Maximum Humidity 93    
Minimum Humidity 49    
Precipitation  
Precipitation 0.00 in - - ()
Sea Level Pressure  
Sea Level Pressure 29.73 in    
Wind  
Wind Speed 9 mph (NW)    
Max Wind Speed 12 mph    
Max Gust Speed 18 mph    
Visibility 8 miles    
Events Snow    
Averages and records for this station are not official NWS values.
T = Trace of Precipitation, MM = Missing Value Source: NWS Daily Summary

Daily Weather History Graph

Daily Weather History Graph

Search for Another Location

Airport:

Trip Planner

Search our weather history database for the weather conditions in past years. The results will help you decide how hot, cold, wet, or windy it might be!

Date:

Astronomy

Mar. 02, 2013 Rise Set
Actual Time 6:25 AM EST 5:46 PM EST
Civil Twilight 5:58 AM EST 6:13 PM EST
Nautical Twilight 5:26 AM EST 6:45 PM EST
Astronomical Twilight 4:54 AM EST 7:17 PM EST
Moon 11:25 PM EST (3/2) 8:49 AM EST (3/2)
Length of Visible Light 12h 15m
Length of Day
11h 20m
Waning Gibbous, 74% of the Moon is Illuminated
Mar 2
Waning Gibbous
Mar 4
Last Quarter
Mar 11
New
Mar 19
First Quarter
Mar 27
Full

Hourly Weather History & Observations

Time (EST) Temp. Windchill Dew Point Humidity Pressure Visibility Wind Dir Wind Speed Gust Speed Precip Events Conditions
12:53 AM 37.0 °F 29.8 °F 24.1 °F 59% 29.75 in 10.0 mi NNW 10.4 mph - N/A   Overcast
1:53 AM 36.0 °F 28.0 °F 23.0 °F 59% 29.75 in 10.0 mi NNW 11.5 mph - N/A   Overcast
2:53 AM 35.1 °F 27.4 °F 23.0 °F 61% 29.75 in 10.0 mi NW 10.4 mph - N/A   Overcast
3:53 AM 35.1 °F 28.6 °F 21.9 °F 59% 29.76 in 10.0 mi NNW 8.1 mph - N/A   Overcast
4:53 AM 34.0 °F 28.8 °F 21.9 °F 61% 29.76 in 10.0 mi NW 5.8 mph - N/A   Overcast
5:53 AM 34.0 °F 26.0 °F 21.9 °F 61% 29.75 in 10.0 mi NNW 10.4 mph - N/A   Overcast
6:53 AM 34.0 °F 27.2 °F 21.9 °F 61% 29.76 in 10.0 mi NNW 8.1 mph - N/A   Overcast
7:53 AM 35.1 °F 28.6 °F 21.9 °F 59% 29.76 in 10.0 mi NW 8.1 mph - N/A   Overcast
8:53 AM 36.0 °F 28.5 °F 21.9 °F 57% 29.76 in 10.0 mi NNW 10.4 mph - N/A   Overcast
9:53 AM 39.0 °F 31.8 °F 21.9 °F 50% 29.75 in 10.0 mi North 11.5 mph - N/A   Clear
10:53 AM 39.9 °F 33.9 °F 21.9 °F 49% 29.74 in 10.0 mi North 9.2 mph - N/A   Overcast
11:53 AM 39.0 °F 33.4 °F 21.9 °F 50% 29.73 in 10.0 mi North 8.1 mph - N/A   Overcast
12:53 PM 39.0 °F 33.4 °F 21.9 °F 50% 29.72 in 10.0 mi NNW 8.1 mph - N/A   Overcast
1:53 PM 39.0 °F 34.8 °F 21.9 °F 50% 29.71 in 10.0 mi NW 5.8 mph - N/A   Overcast
2:53 PM 39.0 °F 32.8 °F 23.0 °F 53% 29.69 in 10.0 mi NNW 9.2 mph - N/A   Overcast
3:53 PM 39.0 °F 32.8 °F 23.0 °F 53% 29.69 in 10.0 mi NW 9.2 mph - N/A   Overcast
4:53 PM 37.9 °F 30.9 °F 23.0 °F 55% 29.70 in 10.0 mi WNW 10.4 mph 18.4 mph N/A   Overcast
5:53 PM 37.9 °F 32.1 °F 23.0 °F 55% 29.71 in 10.0 mi NW 8.1 mph - N/A   Overcast
6:53 PM 37.0 °F 31.0 °F 24.1 °F 59% 29.73 in 10.0 mi WNW 8.1 mph - N/A   Overcast
8:53 PM 33.1 °F 24.9 °F 28.0 °F 82% 29.73 in 9.0 mi NW 10.4 mph 17.3 mph 0.00 in   Overcast
9:12 PM 32.0 °F 24.8 °F 28.4 °F 87% 29.73 in 2.0 mi WNW 8.1 mph 17.3 mph 0.00 in Snow Light Snow
9:18 PM 32.0 °F 24.8 °F 28.4 °F 87% 29.73 in 3.0 mi WNW 8.1 mph - 0.00 in Snow Light Snow
9:30 PM 32.0 °F 25.6 °F 28.4 °F 87% 29.73 in 2.5 mi NW 6.9 mph - 0.00 in Snow Light Snow
9:37 PM 32.0 °F 24.8 °F 28.4 °F 87% 29.73 in 3.0 mi NW 8.1 mph - 0.00 in Snow Light Snow
9:44 PM 32.0 °F 27.5 °F 28.4 °F 87% 29.73 in 2.5 mi NW 4.6 mph - 0.00 in Snow Light Snow
9:53 PM 32.0 °F 24.8 °F 28.9 °F 88% 29.73 in 2.0 mi NW 8.1 mph - 0.00 in Snow Light Snow
10:04 PM 32.0 °F 24.2 °F 28.4 °F 87% 29.73 in 2.5 mi NW 9.2 mph - 0.00 in Snow Light Snow
10:16 PM 32.0 °F 24.2 °F 28.4 °F 87% 29.72 in 3.0 mi NW 9.2 mph - 0.00 in Snow Light Snow
10:53 PM 30.9 °F 22.2 °F 28.0 °F 89% 29.72 in 6.0 mi WNW 10.4 mph - 0.00 in   Overcast
11:28 PM 30.2 °F 23.4 °F 28.4 °F 93% 29.71 in 10.0 mi NW 6.9 mph - N/A   Overcast
11:36 PM 30.2 °F 21.9 °F 28.4 °F 93% 29.71 in 10.0 mi NW 9.2 mph - N/A   Overcast
11:53 PM 30.9 °F 23.5 °F 28.0 °F 89% 29.72 in 10.0 mi NW 8.1 mph - N/A   Overcast